FW6349 Weather Reports


time (UTC)temp
C
wind
direction
speed
KPH
gust
KPH
rain 1hr
cm
rain 24hr
cm
rain mn
cm
humidity
%
barometer
mb
20260502233824 18 227 6.4 9.7 0.00 0.00 0.00 39 1008.4
20260502232816 18 217 4.8 12.9 0.00 0.00 0.00 39 1008.6
20260502231824 18 204 8.0 14.5 0.00 0.00 0.00 39 1008.5
20260502230816 18 220 1.6 3.2 0.00 0.00 0.00 38 1008.6
20260502225824 18 187 3.2 4.8 0.00 0.00 0.00 38 1008.7
20260502224816 18 160 3.2 6.4 0.00 0.00 0.00 38 1008.9
20260502223824 18 230 1.6 3.2 0.00 0.00 0.00 37 1009.0
20260502222816 17 213 3.2 3.2 0.00 0.00 0.00 37 1009.1
20260502221824 17 230 3.2 6.4 0.00 0.00 0.00 37 1009.1
20260502220816 18 248 6.4 11.3 0.00 0.00 0.00 37 1009.2
20260502215844 18 238 4.8 9.7 0.00 0.00 0.00 36 1009.3
20260502214816 18 254 6.4 11.3 0.00 0.00 0.00 36 1009.5
20260502213824 18 251 6.4 12.9 0.00 0.00 0.00 37 1009.4
20260502212836 18 214 4.8 6.4 0.00 0.00 0.00 37 1009.6
20260502211844 18 234 9.7 17.7 0.00 0.00 0.00 36 1009.9
20260502210816 18 270 8.0 12.9 0.00 0.00 0.00 36 1010.0
20260502205824 18 219 6.4 11.3 0.00 0.00 0.00 37 1010.1
20260502204856 18 230 8.0 17.7 0.00 0.00 0.00 36 1010.5
20260502203824 18 227 8.0 14.5 0.00 0.00 0.00 37 1010.6
20260502202836 18 255 6.4 22.5 0.00 0.00 0.00 36 1010.8
20260502201844 18 243 8.0 16.1 0.00 0.00 0.00 36 1011.2
20260502200816 18 218 8.0 20.9 0.00 0.00 0.00 36 1011.3
20260502195824 17 230 6.4 11.3 0.00 0.00 0.00 38 1011.5
20260502194816 17 216 4.8 11.3 0.00 0.00 0.00 37 1011.7
20260502193824 17 232 6.4 9.7 0.00 0.00 0.00 37 1011.9
20260502192916 17 215 8.0 12.9 0.00 0.00 0.00 36 1012.0
20260502191824 17 211 6.4 11.3 0.00 0.00 0.00 38 1012.2
20260502190816 16 252 6.4 12.9 0.00 0.00 0.00 37 1012.6
20260502185824 15 272 8.0 14.5 0.00 0.00 0.00 37 1012.9
20260502184816 16 243 8.0 11.3 0.00 0.00 0.00 37 1012.9
20260502183836 15 256 8.0 16.1 0.00 0.00 0.00 38 1012.9
20260502182816 16 218 4.8 9.7 0.00 0.00 0.00 37 1013.3
20260502181824 15 199 9.7 22.5 0.00 0.00 0.00 38 1013.4
20260502180816 15 213 8.0 11.3 0.00 0.00 0.00 39 1013.4
20260502163824 13 236 6.4 12.9 0.00 0.00 0.00 38 1015.0
20260502162836 13 189 8.0 12.9 0.00 0.00 0.00 39 1015.0
20260502161824 13 30 8.0 12.9 0.00 0.00 0.00 39 1015.2
20260502160817 13 232 8.0 14.5 0.00 0.00 0.00 41 1015.4
20260502151825 12 275 6.4 12.9 0.00 0.00 0.00 45 1015.9
20260502150816 11 273 4.8 9.7 0.00 0.00 0.00 47 1016.1
20260502122816 4 173 0.0 1.6 0.00 0.00 0.00 75 1016.7
20260502121845 3 248 1.6 3.2 0.00 0.00 0.00 77 1016.7
20260502120816 3 231 1.6 3.2 0.00 0.00 0.00 81 1016.7
20260502115824 1 212 0.0 1.6 0.00 0.00 0.00 88 1016.6
20260502114817 0 253 1.6 1.6 0.00 0.00 0.00 93 1016.7
20260502113825 0 0.0 0.0 0.00 0.00 0.00 96 1016.7
20260502112817 -1 0.0 0.0 0.00 0.00 0.00 96 1016.6
20260502111824 -1 0.0 0.0 0.00 0.00 0.00 95 1016.5
20260502110816 -1 0.0 0.0 0.00 0.00 0.00 95 1016.5
20260502105824 -1 0.0 0.0 0.00 0.00 0.00 94 1016.5
20260502104817 -1 0.0 0.0 0.00 0.00 0.00 94 1016.5
20260502103825 -1 0.0 0.0 0.00 0.00 0.00 96 1016.4
20260502102817 -1 0.0 0.0 0.00 0.00 0.00 96 1016.3
20260502101824 -1 0.0 0.0 0.00 0.00 0.00 96 1016.4
20260502100816 -1 0.0 0.0 0.00 0.00 0.00 95 1016.5
20260502090816 0 167 0.0 1.6 0.00 0.00 0.00 93 1016.2
20260502070816 0 0.0 0.0 0.00 0.00 0.00 85 1016.5
20260502065844 1 0.0 0.0 0.00 0.00 0.00 83 1016.5
20260502064817 1 0.0 0.0 0.00 0.00 0.00 84 1016.5
20260502063824 1 0.0 0.0 0.00 0.00 0.00 84 1016.6
20260502062817 1 0.0 0.0 0.00 0.00 0.00 80 1016.7
20260502061825 2 0.0 0.0 0.00 0.00 0.00 79 1016.6
20260502060816 2 0.0 0.0 0.00 0.00 0.00 79 1016.6
20260502055824 2 0.0 0.0 0.00 0.00 0.00 77 1016.7
20260502054817 2 0.0 0.0 0.00 0.00 0.00 77 1016.6
20260502053845 2 0.0 0.0 0.00 0.00 0.00 79 1016.7
20260502052816 2 0.0 0.0 0.00 0.00 0.00 75 1016.8
20260502051825 2 0.0 0.0 0.00 0.00 0.00 75 1016.7
20260502050816 2 0.0 0.0 0.00 0.00 0.00 80 1016.7
20260502045825 2 0.0 0.0 0.00 0.00 0.00 81 1016.8
20260502044837 1 0.0 0.0 0.00 0.00 0.00 81 1016.7
20260502043825 1 0.0 0.0 0.00 0.00 0.00 83 1016.7
20260502042817 1 0.0 0.0 0.00 0.00 0.00 80 1016.7
20260502041824 1 0.0 0.0 0.00 0.00 0.00 79 1016.8
20260502040817 1 0.0 0.0 0.00 0.00 0.00 75 1016.6
20260502035825 2 0.0 0.0 0.00 0.00 0.00 73 1016.8
20260502034817 2 0.0 0.0 0.00 0.00 0.00 73 1016.7
20260502033825 3 0.0 0.0 0.00 0.00 0.00 71 1016.8
20260502032816 3 0.0 0.0 0.00 0.00 0.00 70 1016.8
20260502031825 3 0.0 0.0 0.00 0.00 0.00 66 1016.6
20260502030817 3 0.0 0.0 0.00 0.00 0.00 65 1016.7
20260502025825 4 0.0 0.0 0.00 0.00 0.00 61 1016.8
20260502024817 5 0.0 0.0 0.00 0.00 0.00 59 1016.7
20260502023825 5 0.0 0.0 0.00 0.00 0.00 57 1016.6
20260502022816 6 0.0 0.0 0.00 0.00 0.00 57 1016.7
20260502021824 6 0.0 0.0 0.00 0.00 0.00 54 1016.7
20260502020837 6 0.0 0.0 0.00 0.00 0.00 51 1016.6
20260502015825 7 0.0 0.0 0.00 0.00 0.00 48 1016.4
20260502014817 8 0.0 0.0 0.00 0.00 0.00 45 1016.3
20260502013825 8 0.0 0.0 0.00 0.00 0.00 42 1016.2
20260502012816 9 207 0.0 1.6 0.00 0.00 0.00 40 1016.2
20260502011824 10 225 1.6 1.6 0.00 0.00 0.00 39 1016.1
20260502010817 10 235 1.6 1.6 0.00 0.00 0.00 37 1016.1
20260502005845 11 249 3.2 4.8 0.00 0.00 0.00 36 1016.0
20260502004817 11 99 1.6 3.2 0.00 0.00 0.00 35 1016.1
20260502003825 11 136 1.6 1.6 0.00 0.00 0.00 34 1016.0
20260502002817 12 207 1.6 3.2 0.00 0.00 0.00 34 1016.1
20260502001825 11 286 1.6 3.2 0.00 0.00 0.00 35 1016.0
20260502000817 11 318 4.8 6.4 0.00 0.00 0.00 36 1016.1
20260501235945 11 317 6.4 11.3 0.00 0.00 0.00 34 1015.9
20260501234817 12 23 3.2 6.4 0.00 0.00 0.00 34 1015.9